Location: Berg
(48.5667°N, 13.9833°E)
Time: 14:06:36
(UTC+00:00)

Cosmos 2237 Rocket - Pass Details

Date: 09 April 2020
Orbit: 833 x 851 km, 71.0° (Epoch: 02 June)

Event Time Altitude Azimuth Distance (km) Brightness Sun altitude
Rises 23:36:33 0° 335° (NNW) 3,410 6.1 -33.0°
Reaches altitude 10° 23:39:16 10° 346° (NNW) 2,475 5.3 -32.9°
Maximum altitude 23:44:20 32° 49° (NE) 1,415 3.7 -32.7°
Enters shadow 23:45:52 28° 78° (ENE) 1,544 3.7 -32.7°
